Probability
4 2 0 0 0 0 0 0 0 0 0 0 0 0 0 0 0 0 0 0 0 0 0 1 2 3 3 1 0 1 2 2 1 0 0 0 0 1 2 4 4 4 3 2 2 3 3 3 3
3 1 0 0 0 0 0 0 0 0 0 0 0 0 0 0 0 0 1 1 0 0 0 0 2 4 3 2 1 1 2 2 1 0 0 0 0 1 2 4 5 5 5 3 3 3 3 3 3
2 1 1 1 0 0 0 0 0 0 0 0 1 1 1 0 0 1 2 2 1 0 0 1 3 4 3 3 2 2 2 2 1 0 0 1 0 0 1 3 4 5 5 4 3 2 2 3 3
3 4 4 2 1 0 0 0 0 0 0 1 2 2 1 0 1 2 3 2 1 0 0 1 3 3 3 3 3 2 1 1 0 0 0 1 1 1 1 1 2 3 3 3 2 1 2 3 4
7 7 6 3 1 0 0 0 0 0 0 1 2 2 1 0 1 3 3 2 1 0 0 1 1 2 3 4 3 2 1 0 0 0 0 1 2 2 1 0 0 1 1 1 1 1 3 4 5
9 8 6 3 0 0 0 0 0 0 0 1 1 2 1 0 0 1 2 2 1 0 0 1 1 2 3 4 4 2 0 0 0 0 0 1 2 1 1 1 1 1 0 0 0 1 4 5 4
8 7 5 2 0 0 0 0 0 0 0 0 0 1 1 1 0 1 1 1 0 0 0 1 2 3 3 3 3 2 0 0 0 0 0 1 1 1 2 3 2 1 0 0 1 1 3 4 4
6 5 3 1 0 0 0 0 0 0 0 0 0 0 0 1 2 2 3 2 1 1 1 2 3 3 2 1 1 1 0 0 0 0 0 0 0 1 2 3 2 1 0 0 1 1 2 2 3
3 2 1 0 0 0 0 0 0 1 1 1 1 1 1 2 4 4 4 4 3 2 1 2 3 2 1 0 0 0 0 0 0 0 0 0 0 0 1 1 1 1 0 1 1 1 1 1 1
2 1 0 0 0 1 1 0 1 2 2 2 2 3 4 4 5 6 5 4 4 3 2 2 2 3 2 0 0 0 0 0 1 1 0 0 0 0 0 0 0 0 1 2 2 2 2 1 0
2 1 1 1 1 2 2 1 1 2 2 2 3 5 8 8 8 8 7 4 3 2 2 1 2 3 3 1 1 1 1 1 2 2 1 0 0 0 0 0 0 0 1 2 3 3 2 1 0
1 1 2 2 3 3 3 3 2 2 1 1 2 5 9 11 11 11 9 4 2 1 1 1 1 2 3 2 2 2 2 2 3 2 1 1 2 1 1 1 0 0 0 2 3 3 2 1 0
0 1 2 3 3 3 3 3 3 2 2 2 3 5 9 13 14 13 9 6 3 1 1 2 3 3 3 3 3 3 3 3 3 3 2 2 3 3 2 1 0 0 0 1 2 2 1 0 0
0 1 2 3 3 3 3 3 3 4 6 6 5 6 9 12 14 13 11 9 8 5 4 4 5 5 4 4 3 3 2 2 2 2 2 3 4 4 2 1 0 0 0 1 1 1 0 0 0
0 0 1 1 2 3 3 4 5 9 11 10 7 7 8 11 13 12 12 13 14 12 9 7 7 6 5 5 3 2 2 2 1 1 1 1 2 1 1 0 0 0 0 0 0 0 0 0 0
0 0 0 0 1 2 3 5 8 11 13 12 9 8 10 11 11 12 13 15 17 17 14 11 9 7 6 5 4 3 2 2 2 1 1 1 1 1 1 1 1 1 1 0 0 0 0 0 0
0 0 0 0 0 1 2 6 9 11 12 10 8 9 12 13 12 12 14 16 17 18 16 13 10 7 5 4 3 3 3 3 3 2 1 1 2 2 2 2 2 2 1 0 0 0 0 1 1
0 0 0 0 0 1 2 6 10 11 11 9 8 10 13 14 13 13 14 16 18 18 16 14 10 7 5 3 3 3 4 4 4 4 3 2 2 3 3 2 2 2 1 0 0 0 0 1 2
0 0 0 0 0 1 3 5 8 10 12 11 9 11 13 13 13 14 14 16 18 19 17 14 13 11 8 6 4 4 4 5 5 5 5 4 3 3 2 1 1 1 0 0 0 0 0 1 2
0 0 0 0 0 1 2 4 6 9 12 12 10 10 11 12 14 16 16 16 17 18 18 16 15 14 12 10 9 6 5 5 5 5 6 6 5 4 2 1 0 0 0 0 0 0 0 0 1
0 0 0 0 0 1 2 4 6 10 12 12 10 8 9 11 15 19 19 17 17 18 19 18 17 16 15 14 13 10 7 5 4 4 5 6 6 5 3 1 1 0 0 0 0 0 0 0 0
0 0 0 0 0 0 2 3 6 10 12 11 9 7 8 11 16 20 20 19 20 20 21 21 19 17 16 16 15 13 11 7 4 3 3 3 4 4 3 3 2 2 1 1 0 0 0 0 1
0 0 0 0 0 0 1 2 5 8 9 8 7 6 8 11 15 18 19 20 22 22 22 21 18 16 16 15 15 14 12 9 6 4 2 2 2 3 4 4 5 5 4 3 1 1 0 0 1
0 0 0 0 0 0 0 1 4 6 5 4 4 6 9 13 15 16 17 19 21 21 21 19 17 16 16 15 15 13 12 11 8 5 4 3 3 4 6 7 7 7 6 4 3 3 1 0 1
0 0 0 0 0 0 0 0 1 3 4 4 5 7 12 16 17 17 18 19 20 19 18 17 16 15 16 16 15 14 14 13 10 8 7 6 5 6 8 9 9 8 6 6 6 5 3 2 2
0 0 0 0 0 0 0 0 0 2 5 7 8 9 15 19 20 19 19 19 20 19 18 18 17 15 16 17 17 16 15 13 10 9 9 8 6 7 8 9 10 10 10 10 10 8 7 6 7
0 0 0 0 0 0 0 0 0 2 6 11 11 12 16 20 21 20 19 19 20 20 18 19 19 17 17 18 17 16 14 12 11 10 10 10 8 8 8 9 11 13 15 16 14 12 10 9 9
0 0 0 0 0 0 0 0 1 3 8 12 12 11 14 19 23 24 21 20 21 20 19 21 23 21 20 20 19 17 14 13 12 11 12 11 10 10 10 11 13 15 18 19 17 15 11 9 8
0 0 0 0 0 0 0 1 3 5 8 10 10 10 13 20 26 26 23 22 21 20 19 22 25 25 23 22 22 19 16 14 14 14 14 14 11 11 13 14 14 16 17 18 17 14 11 8 7
0 0 0 0 0 0 1 2 4 7 8 8 9 10 16 23 27 24 22 22 21 19 18 21 25 26 25 24 23 21 17 14 15 16 16 14 12 11 12 14 13 14 15 16 16 13 10 8 6
Wind_Speed
9 7 3 1 1 3 3 2 6 7 6 7 10 10 9 7 4 5 3 8 9 7 6 10 13 13 13 13 13 13 14 14 14 15 15 15 15 15 15 14 14 13 13 12 11 10 10 9 9
6 5 2 0 3 3 3 4 9 8 8 9 10 10 9 8 7 9 5 8 9 8 6 9 15 14 13 13 13 13 13 14 14 14 14 14 14 14 14 14 13 13 12 11 11 10 9 8 7
5 3 0 2 1 3 4 6 9 9 9 8 7 7 6 6 8 6 7 11 10 8 6 10 15 14 14 13 13 13 13 13 13 13 13 13 13 13 13 13 12 12 11 10 10 9 8 7 6
2 1 1 2 2 2 5 7 9 10 8 8 8 7 5 5 5 9 13 12 11 8 6 10 15 14 14 13 13 12 12 12 12 12 12 12 12 12 12 12 11 11 10 9 9 8 7 7 6
0 1 3 2 1 2 5 7 9 9 6 8 9 8 5 5 12 15 13 12 11 8 6 8 14 13 13 13 13 12 12 12 12 11 11 10 10 11 11 11 11 10 9 9 8 8 7 6 5
1 2 2 2 2 3 5 8 11 12 11 9 9 7 4 7 13 13 12 11 10 9 7 7 12 13 13 13 13 12 12 11 11 11 10 9 9 9 10 10 10 9 9 8 8 8 7 6 5
2 2 1 2 4 5 5 6 9 10 10 7 7 6 5 6 9 11 11 10 9 8 7 5 6 8 12 12 12 12 12 11 10 10 9 9 9 9 9 8 9 9 9 9 8 8 7 6 6
3 2 1 1 4 3 4 5 8 10 8 9 7 8 7 7 9 11 11 10 9 7 6 5 4 4 5 6 11 11 11 10 9 8 9 9 8 8 8 7 7 8 8 9 8 8 8 7 6
2 3 1 2 5 4 5 7 6 7 9 6 5 7 11 12 13 12 10 8 7 7 5 5 5 4 4 4 8 8 9 9 8 6 8 6 2 3 4 6 8 8 8 8 8 8 8 7 6
4 2 5 4 5 7 7 8 7 7 9 7 9 10 13 13 13 12 11 10 8 7 6 5 5 5 4 4 4 3 3 3 3 2 2 2 1 2 4 6 8 9 9 8 8 8 7 4 2
4 5 4 2 5 8 8 6 5 9 7 9 13 14 14 13 12 12 10 9 8 8 7 6 6 5 4 3 3 2 2 2 2 2 2 2 1 1 1 1 3 4 5 3 4 4 2 2 2
3 4 3 3 4 6 8 7 6 7 8 11 13 15 14 14 12 11 11 9 8 7 7 6 6 5 4 3 3 3 2 2 2 2 3 2 1 1 1 1 2 2 2 2 2 2 2 2 3
2 1 1 3 4 5 7 8 8 7 11 13 12 13 13 13 11 9 10 9 7 6 6 6 6 5 4 4 3 3 3 3 3 2 2 3 2 2 1 1 2 2 2 2 2 2 3 2 2
1 2 2 3 3 5 8 6 7 9 13 13 12 12 12 12 12 10 9 9 8 7 6 5 6 5 5 3 2 2 2 2 2 2 3 3 2 1 1 1 1 1 1 2 2 3 3 2 2
1 3 2 1 3 4 8 5 6 11 13 13 12 12 12 11 11 11 11 10 9 8 6 6 6 5 4 3 3 2 2 3 2 2 3 2 2 1 1 1 1 1 1 1 1 2 1 1 2
4 4 2 4 4 4 7 5 7 11 13 12 11 11 11 10 11 11 11 10 9 8 7 6 6 5 4 3 2 2 2 3 2 2 2 2 2 2 1 1 1 1 1 1 1 1 1 1 1
4 2 3 4 4 5 5 5 8 10 12 11 11 11 11 10 10 10 12 11 9 8 7 6 5 5 4 3 2 2 2 2 2 2 2 2 2 2 2 1 2 1 1 1 1 1 1 2 2
4 3 4 4 3 3 4 5 9 11 12 12 11 11 11 11 11 11 11 11 9 8 7 6 5 4 4 3 2 1 1 1 1 1 2 2 2 2 1 1 1 1 1 1 1 1 1 1 2
4 4 4 6 4 2 4 6 10 10 10 10 10 10 11 10 10 11 11 11 9 8 7 6 6 4 4 2 2 1 1 1 1 1 2 2 2 2 1 1 1 1 1 2 2 1 1 1 0
3 3 4 6 4 1 2 3 6 9 12 12 13 12 11 9 9 11 10 10 9 9 8 7 6 5 4 3 2 2 2 1 1 1 1 1 1 2 2 1 1 1 1 1 1 1 0 0 0
4 5 4 3 3 4 3 2 3 5 6 6 8 9 10 11 12 11 11 10 9 9 9 8 7 6 5 4 2 1 1 1 1 0 1 1 1 2 1 1 1 1 1 1 1 1 2 1 1
5 5 3 1 2 1 2 1 4 5 5 7 8 9 11 11 11 11 11 10 11 10 9 8 8 6 5 5 4 4 3 2 2 2 1 1 1 2 2 1 1 1 1 1 1 1 1 2 1
6 3 1 0 1 2 2 2 5 3 5 8 9 11 12 12 13 12 12 12 11 10 9 8 7 6 5 5 5 4 3 2 1 1 1 1 1 1 1 1 1 1 1 1 0 1 1 2 2
2 4 6 6 5 2 4 2 5 6 10 9 10 11 11 11 11 11 10 9 8 8 8 7 7 6 5 6 5 5 4 3 2 1 1 1 1 1 1 1 1 1 1 1 1 2 2 1 2
3 6 5 6 5 5 4 1 8 9 9 11 12 12 11 10 10 10 11 10 9 9 9 8 8 7 6 6 5 4 4 3 3 2 2 1 1 1 2 1 1 1 1 1 1 1 1 1 1
2 8 7 4 4 6 3 2 7 5 6 7 9 10 11 11 10 10 10 10 10 10 9 8 8 7 6 6 5 4 3 2 2 2 2 2 2 2 2 1 1 1 1 1 1 1 1 1 1
2 3 8 7 2 1 3 4 6 3 2 4 7 9 10 11 11 10 9 9 9 9 9 9 8 7 6 6 6 4 4 3 3 2 2 2 2 2 1 1 1 1 1 1 1 1 1 1 1
5 5 5 5 3 3 4 3 5 4 3 4 5 8 8 9 9 9 8 9 8 8 7 7 8 7 6 6 6 5 4 4 3 2 2 2 2 1 1 1 1 1 1 1 1 1 1 1 2
1 1 4 4 6 6 3 6 6 7 6 6 5 6 8 9 9 9 9 8 7 7 7 7 7 6 6 6 5 4 4 3 3 3 3 2 1 1 1 1 1 1 1 1 1 1 1 1 1
4 4 6 4 4 4 4 7 4 3 5 6 5 6 8 9 8 8 8 7 7 7 7 7 6 6 6 5 5 4 4 3 3 3 3 2 2 2 1 1 1 1 1 1 1 1 1 1 1
Wind_Direction
171 163 163 198 32 48 64 75 94 85 65 64 76 81 82 66 91 124 137 138 135 141 144 138 130 127 122 119 117 116 116 116 115 115 115 117 120 123 127 128 129 131 131 132 132 132 131 130 130
165 166 184 30 66 69 66 94 87 90 115 108 82 79 75 68 84 110 120 139 134 131 126 132 128 126 125 123 121 120 120 120 120 121 121 121 124 127 129 129 130 132 133 135 135 136 136 136 137
177 192 192 51 78 125 118 104 104 102 104 96 88 66 69 95 111 123 141 139 128 122 121 131 127 127 128 127 127 125 123 123 125 125 126 127 129 131 131 133 135 136 137 138 141 145 146 146 147
163 151 20 68 105 154 132 128 113 105 83 73 91 75 68 94 114 129 136 135 128 127 129 133 130 130 130 131 131 129 129 127 128 129 132 133 134 136 137 139 142 142 144 146 150 155 158 160 162
132 76 43 51 88 115 128 122 110 103 94 85 89 94 77 72 115 128 137 135 131 130 132 136 133 133 133 132 131 132 133 133 133 134 136 137 137 139 143 144 147 150 153 156 162 168 171 175 182
103 72 64 87 103 96 111 115 109 102 106 103 98 99 87 119 124 132 134 133 132 133 133 136 138 136 136 136 136 135 135 139 139 139 139 142 143 144 150 155 157 161 165 169 174 180 184 190 201
165 116 134 137 115 107 128 122 117 121 123 124 122 102 113 130 133 133 129 129 129 130 129 127 137 139 141 142 142 142 141 141 143 146 148 150 154 155 160 166 169 174 177 181 188 193 199 208 218
178 96 31 123 116 118 125 114 120 126 116 127 124 122 147 156 136 127 124 125 126 127 130 130 132 132 140 147 149 148 147 147 149 153 158 161 164 168 172 177 184 188 191 194 200 207 212 218 228
133 73 265 196 138 140 125 109 111 105 115 119 110 126 145 142 132 125 120 120 127 131 135 139 141 137 140 147 157 154 156 157 160 165 167 168 174 180 184 196 199 203 208 210 213 218 224 226 232
136 153 229 214 150 141 131 128 132 111 109 103 102 114 131 135 135 135 139 141 144 147 153 150 148 149 149 159 150 153 157 155 159 169 173 171 182 206 204 207 213 217 219 219 223 227 229 228 226
167 187 223 182 146 135 131 126 109 122 124 142 142 144 144 141 141 143 148 150 153 155 156 159 157 157 159 156 149 156 153 152 169 185 188 176 172 215 222 213 227 227 224 222 228 234 221 208 212
168 208 194 160 146 136 137 134 115 126 143 150 149 149 146 149 152 152 150 150 151 151 154 155 156 154 161 153 156 161 161 166 177 194 189 167 166 190 199 208 217 217 214 210 215 220 216 226 220
152 220 184 157 140 125 120 130 126 133 136 139 140 143 148 154 154 153 148 147 147 145 150 154 150 150 149 144 157 158 170 175 178 180 191 176 176 193 202 212 218 229 206 203 208 210 212 222 216
231 164 148 166 142 124 118 117 111 144 143 143 145 147 156 158 156 151 148 151 156 154 153 153 147 146 140 141 146 150 162 162 167 179 188 180 179 184 190 195 226 242 221 208 201 206 207 213 210
351 53 7 189 115 135 112 101 143 153 149 150 157 157 156 160 158 158 160 157 158 156 150 151 148 143 143 143 151 151 161 151 161 179 183 176 182 191 184 189 234 253 248 231 208 219 201 216 219
17 37 355 268 157 169 123 163 172 158 153 157 163 162 159 163 162 160 156 154 153 151 151 155 148 143 145 142 143 141 145 144 165 175 174 182 190 180 169 197 242 247 249 236 216 208 201 221 227
8 349 282 279 205 165 141 174 179 168 162 166 169 167 162 161 162 161 159 157 157 156 152 148 142 147 151 141 133 132 135 143 168 169 167 190 201 193 178 210 244 238 240 242 238 210 199 210 237
258 260 263 252 237 155 151 177 174 178 170 172 170 166 165 166 170 164 161 159 157 156 152 149 146 151 148 132 105 86 92 143 167 169 183 190 201 196 180 206 256 246 237 252 232 213 205 205 223
237 250 263 267 257 150 181 177 181 178 172 173 172 172 173 174 168 160 160 160 156 155 154 156 154 160 152 143 149 153 185 210 194 199 184 188 193 186 161 227 245 246 225 233 219 195 193 250 17
249 258 273 298 289 133 149 181 181 172 180 180 178 177 176 168 162 163 161 164 166 166 164 163 164 165 169 174 173 170 171 199 196 220 198 200 192 197 186 198 224 232 230 259 236 158 153 271 105
246 225 228 238 338 30 79 356 192 185 176 171 174 174 173 174 171 169 166 170 170 172 173 173 176 172 172 165 141 117 80 26 24 341 249 238 209 207 210 209 213 216 187 215 221 189 164 208 271
248 242 216 195 51 287 132 222 254 186 177 187 184 175 177 174 170 172 170 173 179 181 177 173 174 173 173 164 157 156 166 189 216 208 218 244 229 221 219 205 201 213 196 198 218 178 187 170 224
227 243 262 355 77 16 17 123 275 162 189 205 196 185 181 177 174 177 178 178 179 177 175 175 170 173 173 169 172 170 181 200 208 176 199 255 267 243 235 216 207 213 206 179 216 202 194 181 192
196 46 22 35 59 355 260 163 256 209 202 198 194 187 182 175 176 178 175 169 172 171 169 169 167 178 178 177 178 178 181 181 166 179 199 246 266 274 273 244 218 219 204 169 208 222 215 211 204
61 77 27 1 3 264 272 181 246 231 203 191 191 185 177 168 167 170 174 174 171 170 174 173 173 183 181 179 183 185 187 178 180 192 197 209 239 264 266 273 240 226 196 169 186 193 221 218 219
218 135 154 192 229 276 327 249 267 248 202 182 175 167 163 169 171 169 171 173 172 172 172 174 180 188 184 181 185 180 173 175 188 196 199 208 222 234 234 226 216 199 171 176 159 189 230 212 222
195 197 172 147 188 287 283 282 309 327 113 148 150 151 164 170 169 169 167 165 171 173 173 175 178 182 182 180 178 178 181 182 190 195 201 215 226 226 220 199 186 186 182 195 188 208 232 225 226
172 167 97 117 162 248 283 267 242 240 187 158 158 162 170 167 165 162 164 166 169 175 173 170 174 176 177 181 184 186 188 191 191 187 205 221 230 230 219 223 227 243 234 214 196 232 239 228 256
307 97 121 130 157 163 228 265 234 197 179 167 170 169 166 166 166 164 165 167 164 166 169 171 171 171 176 180 179 177 182 187 185 196 212 216 229 227 222 211 214 229 241 228 196 249 253 238 266
183 189 154 164 228 172 172 258 284 177 165 155 155 160 161 166 164 158 155 152 154 164 172 172 171 172 179 175 169 180 185 185 190 205 218 211 213 223 223 200 206 228 234 229 217 248 256 244 256